Time,TemperatureF,DewpointF,PressureIn,WindDirection,WindDirectionDegrees,WindSpeedMPH,WindSpeedGustMPH,Humidity,HourlyPrecipIn,Conditions,Clouds,dailyrainin,SoftwareType,DateUTC
2013-02-26 00:12:00,31.0,-99.9,30.24,West,266,2.0,3.0,-999,-99.99,,,-99.99,,2013-02-26 05:12:00,
2013-02-26 00:22:00,-999.0,-99.9,30.24,WNW,283,1.0,2.0,-999,-99.99,,,-99.99,,2013-02-26 05:22:00,
2013-02-26 00:32:00,-999.0,-99.9,30.25,West,274,2.0,2.0,-999,-99.99,,,-99.99,,2013-02-26 05:32:00,
2013-02-26 00:43:00,31.0,-99.9,30.25,West,267,1.0,2.0,-999,-99.99,,,-99.99,,2013-02-26 05:43:00,
2013-02-26 00:52:00,-999.0,-99.9,30.25,West,281,1.0,1.0,-999,-99.99,,,-99.99,,2013-02-26 05:52:00,
2013-02-26 01:32:00,-999.0,-99.9,30.25,WNW,295,2.0,2.0,-999,-99.99,,,-99.99,,2013-02-26 06:32:00,
2013-02-26 01:42:00,30.0,-99.9,30.25,WNW,298,2.0,3.0,-999,-99.99,,,-99.99,,2013-02-26 06:42:00,
2013-02-26 02:11:00,30.0,-99.9,30.24,North,-999,-999.0,-999.0,-999,-99.99,,,-99.99,,2013-02-26 07:11:00,
2013-02-26 02:22:00,-999.0,-99.9,30.25,WNW,287,1.0,2.0,-999,-99.99,,,-99.99,,2013-02-26 07:22:00,
2013-02-26 02:42:00,29.0,-99.9,30.23,North,-999,-999.0,-999.0,-999,-99.99,,,-99.99,,2013-02-26 07:42:00,
2013-02-26 03:11:00,29.0,-99.9,30.23,WNW,294,0.0,1.0,-999,-99.99,,,-99.99,,2013-02-26 08:11:00,
2013-02-26 03:22:00,-999.0,-99.9,30.24,WNW,301,0.0,1.0,-999,-99.99,,,-99.99,,2013-02-26 08:22:00,
2013-02-26 03:32:00,-999.0,-99.9,30.24,WNW,284,1.0,2.0,-999,-99.99,,,-99.99,,2013-02-26 08:32:00,
2013-02-26 03:42:00,31.0,-99.9,30.25,WNW,283,1.0,2.0,-999,-99.99,,,-99.99,,2013-02-26 08:42:00,
2013-02-26 03:52:00,-999.0,-99.9,30.26,West,277,2.0,2.0,-999,-99.99,,,-99.99,,2013-02-26 08:52:00,
2013-02-26 04:02:00,-999.0,-99.9,30.28,West,279,3.0,4.0,-999,-99.99,,,-99.99,,2013-02-26 09:02:00,
2013-02-26 04:11:00,31.0,-99.9,30.28,West,277,2.0,4.0,-999,-99.99,,,-99.99,,2013-02-26 09:11:00,
2013-02-26 04:21:00,-999.0,-99.9,30.29,West,270,3.0,4.0,-999,-99.99,,,-99.99,,2013-02-26 09:21:00,
2013-02-26 04:32:00,-999.0,-99.9,30.29,West,267,2.0,3.0,-999,-99.99,,,-99.99,,2013-02-26 09:32:00,
2013-02-26 04:43:00,-999.0,-99.9,30.29,WNW,283,2.0,3.0,-999,-99.99,,,-99.99,,2013-02-26 09:43:00,
2013-02-26 04:52:00,-999.0,-99.9,30.30,WNW,284,2.0,2.0,-999,-99.99,,,-99.99,,2013-02-26 09:52:00,
2013-02-26 05:01:00,-999.0,-99.9,30.30,WNW,289,2.0,4.0,-999,-99.99,,,-99.99,,2013-02-26 10:01:00,
2013-02-26 05:11:00,31.0,-99.9,30.30,WNW,295,2.0,2.0,-999,-99.99,,,-99.99,,2013-02-26 10:11:00,
2013-02-26 05:32:00,-999.0,-99.9,30.29,West,281,1.0,2.0,-999,-99.99,,,-99.99,,2013-02-26 10:32:00,
2013-02-26 05:42:00,30.0,-99.9,30.29,West,280,-999.0,2.0,-999,-99.99,,,-99.99,,2013-02-26 10:42:00,
2013-02-26 06:32:00,-999.0,-99.9,30.30,West,281,2.0,2.0,-999,-99.99,,,-99.99,,2013-02-26 11:32:00,
2013-02-26 06:42:00,30.0,-99.9,30.30,West,281,2.0,3.0,-999,-99.99,,,-99.99,,2013-02-26 11:42:00,
2013-02-26 06:53:00,-999.0,-99.9,30.31,WNW,287,2.0,3.0,-999,-99.99,,,-99.99,,2013-02-26 11:53:00,
2013-02-26 07:11:00,31.0,-99.9,30.30,WSW,250,-999.0,0.0,-999,-99.99,,,-99.99,,2013-02-26 12:11:00,
2013-02-26 07:33:00,37.0,-99.9,30.31,NW,320,1.0,2.0,-999,-99.99,,,-99.99,,2013-02-26 12:33:00,
2013-02-26 07:42:00,36.0,-99.9,30.32,NW,315,1.0,2.0,-999,-99.99,,,-99.99,,2013-02-26 12:42:00,
2013-02-26 07:53:00,38.0,-99.9,30.32,NNW,336,1.0,2.0,-999,-99.99,,,-99.99,,2013-02-26 12:53:00,
2013-02-26 08:02:00,40.0,-99.9,30.32,NE,40,1.0,3.0,-999,-99.99,,,-99.99,,2013-02-26 13:02:00,
2013-02-26 08:11:00,39.0,-99.9,30.32,NE,38,2.0,3.0,-999,-99.99,,,-99.99,,2013-02-26 13:11:00,
2013-02-26 08:22:00,39.0,-99.9,30.32,NE,44,2.0,3.0,-999,-99.99,,,-99.99,,2013-02-26 13:22:00,
2013-02-26 08:32:00,40.0,-99.9,30.32,NE,35,2.0,3.0,-999,-99.99,,,-99.99,,2013-02-26 13:32:00,
2013-02-26 08:42:00,40.0,-99.9,30.32,NNE,27,3.0,5.0,-999,-99.99,,,-99.99,,2013-02-26 13:42:00,
2013-02-26 08:52:00,40.0,-99.9,30.32,NNE,25,3.0,6.0,-999,-99.99,,,-99.99,,2013-02-26 13:52:00,
2013-02-26 09:02:00,39.0,-99.9,30.32,NNE,26,4.0,8.0,-999,-99.99,,,-99.99,,2013-02-26 14:02:00,
2013-02-26 09:11:00,40.0,-99.9,30.33,NNE,20,4.0,6.0,-999,-99.99,,,-99.99,,2013-02-26 14:11:00,
2013-02-26 09:22:00,39.0,-99.9,30.34,NNE,17,4.0,8.0,-999,-99.99,,,-99.99,,2013-02-26 14:22:00,
2013-02-26 09:32:00,39.0,-99.9,30.33,NNE,17,6.0,8.0,-999,-99.99,,,-99.99,,2013-02-26 14:32:00,
2013-02-26 09:42:00,39.0,-99.9,30.33,NNE,12,6.0,7.0,-999,-99.99,,,-99.99,,2013-02-26 14:42:00,
2013-02-26 09:52:00,39.0,-99.9,30.33,NNE,15,6.0,8.0,-999,-99.99,,,-99.99,,2013-02-26 14:52:00,
2013-02-26 10:02:00,40.0,-99.9,30.33,North,7,6.0,8.0,-999,-99.99,,,-99.99,,2013-02-26 15:02:00,
2013-02-26 10:12:00,39.0,-99.9,30.33,North,11,6.0,8.0,-999,-99.99,,,-99.99,,2013-02-26 15:12:00,
2013-02-26 10:22:00,40.0,-99.9,30.33,NNE,15,5.0,7.0,-999,-99.99,,,-99.99,,2013-02-26 15:22:00,
2013-02-26 10:32:00,40.0,-99.9,30.33,NNE,16,6.0,9.0,-999,-99.99,,,-99.99,,2013-02-26 15:32:00,
2013-02-26 10:42:00,40.0,-99.9,30.33,NNE,19,7.0,9.0,-999,-99.99,,,-99.99,,2013-02-26 15:42:00,
2013-02-26 10:52:00,41.0,-99.9,30.33,NNE,18,5.0,8.0,-999,-99.99,,,-99.99,,2013-02-26 15:52:00,
2013-02-26 11:02:00,40.0,-99.9,30.34,NE,44,6.0,9.0,-999,-99.99,,,-99.99,,2013-02-26 16:02:00,
2013-02-26 11:11:00,40.0,-99.9,30.34,NE,53,9.0,11.0,-999,-99.99,,,-99.99,,2013-02-26 16:11:00,
2013-02-26 11:22:00,40.0,-99.9,30.34,NE,54,9.0,13.0,-999,-99.99,,,-99.99,,2013-02-26 16:22:00,
2013-02-26 11:32:00,40.0,-99.9,30.33,NE,56,9.0,13.0,-999,-99.99,,,-99.99,,2013-02-26 16:32:00,
2013-02-26 11:42:00,40.0,-99.9,30.32,ENE,62,11.0,13.0,-999,-99.99,,,-99.99,,2013-02-26 16:42:00,
2013-02-26 11:52:00,40.0,-99.9,30.32,ENE,58,12.0,14.0,-999,-99.99,,,-99.99,,2013-02-26 16:52:00,
2013-02-26 12:01:00,39.0,-99.9,30.32,ENE,78,11.0,15.0,-999,-99.99,,,-99.99,,2013-02-26 17:01:00,
2013-02-26 12:11:00,40.0,-99.9,30.31,ENE,61,10.0,14.0,-999,-99.99,,,-99.99,,2013-02-26 17:11:00,
2013-02-26 12:22:00,39.0,-99.9,30.31,East,82,11.0,14.0,-999,-99.99,,,-99.99,,2013-02-26 17:22:00,
2013-02-26 12:32:00,40.0,-99.9,30.32,East,81,11.0,16.0,-999,-99.99,,,-99.99,,2013-02-26 17:32:00,
2013-02-26 12:42:00,40.0,-99.9,30.32,ENE,72,11.0,12.0,-999,-99.99,,,-99.99,,2013-02-26 17:42:00,
2013-02-26 12:52:00,40.0,-99.9,30.32,ENE,67,11.0,14.0,-999,-99.99,,,-99.99,,2013-02-26 17:52:00,
2013-02-26 13:02:00,40.0,-99.9,30.32,ENE,61,9.0,14.0,-999,-99.99,,,-99.99,,2013-02-26 18:02:00,
2013-02-26 13:12:00,40.0,-99.9,30.32,ENE,65,9.0,12.0,-999,-99.99,,,-99.99,,2013-02-26 18:12:00,
2013-02-26 13:21:00,40.0,-99.9,30.32,ENE,57,9.0,12.0,-999,-99.99,,,-99.99,,2013-02-26 18:21:00,
2013-02-26 13:32:00,40.0,-99.9,30.32,ENE,74,9.0,12.0,-999,-99.99,,,-99.99,,2013-02-26 18:32:00,
2013-02-26 13:42:00,40.0,-99.9,30.31,ENE,70,9.0,15.0,-999,-99.99,,,-99.99,,2013-02-26 18:42:00,
2013-02-26 13:53:00,40.0,-99.9,30.31,ENE,67,11.0,16.0,-999,-99.99,,,-99.99,,2013-02-26 18:53:00,
2013-02-26 14:02:00,40.0,-99.9,30.30,ENE,71,12.0,15.0,-999,-99.99,,,-99.99,,2013-02-26 19:02:00,
2013-02-26 14:11:00,40.0,-99.9,30.31,ENE,63,10.0,14.0,-999,-99.99,,,-99.99,,2013-02-26 19:11:00,
2013-02-26 14:22:00,40.0,-99.9,30.30,ENE,65,8.0,12.0,-999,-99.99,,,-99.99,,2013-02-26 19:22:00,
2013-02-26 14:32:00,40.0,-99.9,30.30,ENE,71,10.0,13.0,-999,-99.99,,,-99.99,,2013-02-26 19:32:00,
2013-02-26 14:42:00,39.0,-99.9,30.30,ENE,66,9.0,14.0,-999,-99.99,,,-99.99,,2013-02-26 19:42:00,
2013-02-26 14:52:00,40.0,-99.9,30.30,ENE,64,9.0,11.0,-999,-99.99,,,-99.99,,2013-02-26 19:52:00,
2013-02-26 15:01:00,39.0,-99.9,30.29,ENE,70,9.0,13.0,-999,-99.99,,,-99.99,,2013-02-26 20:01:00,
2013-02-26 15:11:00,39.0,-99.9,30.29,East,79,10.0,12.0,-999,-99.99,,,-99.99,,2013-02-26 20:11:00,
2013-02-26 15:22:00,39.0,-99.9,30.29,East,95,8.0,12.0,-999,-99.99,,,-99.99,,2013-02-26 20:22:00,
2013-02-26 15:32:00,39.0,-99.9,30.27,ENE,72,11.0,14.0,-999,-99.99,,,-99.99,,2013-02-26 20:32:00,
2013-02-26 15:42:00,39.0,-99.9,30.27,ENE,66,11.0,14.0,-999,-99.99,,,-99.99,,2013-02-26 20:42:00,
2013-02-26 15:52:00,39.0,-99.9,30.28,East,79,10.0,13.0,-999,-99.99,,,-99.99,,2013-02-26 20:52:00,
2013-02-26 16:02:00,39.0,-99.9,30.29,East,89,11.0,13.0,-999,-99.99,,,-99.99,,2013-02-26 21:02:00,
2013-02-26 16:11:00,39.0,-99.9,30.29,ESE,110,9.0,13.0,-999,-99.99,,,-99.99,,2013-02-26 21:11:00,
2013-02-26 16:21:00,39.0,-99.9,30.29,ESE,110,8.0,12.0,-999,-99.99,,,-99.99,,2013-02-26 21:21:00,
2013-02-26 16:31:00,39.0,-99.9,30.28,ESE,103,9.0,13.0,-999,-99.99,,,-99.99,,2013-02-26 21:31:00,
2013-02-26 16:41:00,39.0,-99.9,30.29,East,95,10.0,11.0,-999,-99.99,,,-99.99,,2013-02-26 21:41:00,
2013-02-26 16:51:00,38.0,-99.9,30.28,East,91,10.0,12.0,-999,-99.99,,,-99.99,,2013-02-26 21:51:00,
2013-02-26 17:01:00,39.0,-99.9,30.27,ESE,110,7.0,13.0,-999,-99.99,,,-99.99,,2013-02-26 22:01:00,
2013-02-26 17:11:00,38.0,-99.9,30.27,East,96,9.0,12.0,-999,-99.99,,,-99.99,,2013-02-26 22:11:00,
2013-02-26 17:21:00,38.0,-99.9,30.26,East,95,7.0,11.0,-999,-99.99,,,-99.99,,2013-02-26 22:21:00,
2013-02-26 17:32:00,38.0,-99.9,30.26,East,97,6.0,8.0,-999,-99.99,,,-99.99,,2013-02-26 22:32:00,
2013-02-26 17:42:00,38.0,-99.9,30.27,East,98,6.0,8.0,-999,-99.99,,,-99.99,,2013-02-26 22:42:00,
2013-02-26 17:52:00,38.0,-99.9,30.27,ESE,110,4.0,7.0,-999,-99.99,,,-99.99,,2013-02-26 22:52:00,
2013-02-26 18:01:00,38.0,-99.9,30.27,ESE,103,5.0,6.0,-999,-99.99,,,-99.99,,2013-02-26 23:01:00,
2013-02-26 18:11:00,38.0,-99.9,30.27,East,100,5.0,7.0,-999,-99.99,,,-99.99,,2013-02-26 23:11:00,
2013-02-26 18:21:00,38.0,-99.9,30.27,ESE,102,5.0,7.0,-999,-99.99,,,-99.99,,2013-02-26 23:21:00,
2013-02-26 18:32:00,38.0,-99.9,30.26,East,86,6.0,7.0,-999,-99.99,,,-99.99,,2013-02-26 23:32:00,
2013-02-26 18:42:00,38.0,-99.9,30.26,ENE,76,6.0,8.0,-999,-99.99,,,-99.99,,2013-02-26 23:42:00,
2013-02-26 18:52:00,38.0,-99.9,30.26,East,89,6.0,8.0,-999,-99.99,,,-99.99,,2013-02-26 23:52:00,
2013-02-26 19:02:00,38.0,-99.9,30.25,ESE,102,5.0,7.0,-999,-99.99,,,-99.99,,2013-02-27 00:02:00,
2013-02-26 19:11:00,38.0,-99.9,30.25,East,100,6.0,7.0,-999,-99.99,,,-99.99,,2013-02-27 00:11:00,
2013-02-26 19:22:00,38.0,-99.9,30.25,East,97,5.0,8.0,-999,-99.99,,,-99.99,,2013-02-27 00:22:00,
2013-02-26 19:32:00,38.0,-99.9,30.24,East,85,8.0,11.0,-999,-99.99,,,-99.99,,2013-02-27 00:32:00,
2013-02-26 19:42:00,38.0,-99.9,30.24,East,84,10.0,11.0,-999,-99.99,,,-99.99,,2013-02-27 00:42:00,
2013-02-26 19:52:00,38.0,-99.9,30.24,East,97,8.0,11.0,-999,-99.99,,,-99.99,,2013-02-27 00:52:00,
2013-02-26 20:01:00,38.0,-99.9,30.24,East,98,9.0,11.0,-999,-99.99,,,-99.99,,2013-02-27 01:01:00,
2013-02-26 20:11:00,38.0,-99.9,30.24,East,99,7.0,10.0,-999,-99.99,,,-99.99,,2013-02-27 01:11:00,
2013-02-26 20:22:00,39.0,-99.9,30.23,East,98,8.0,11.0,-999,-99.99,,,-99.99,,2013-02-27 01:22:00,
2013-02-26 20:32:00,39.0,-99.9,30.23,ESE,108,7.0,11.0,-999,-99.99,,,-99.99,,2013-02-27 01:32:00,
2013-02-26 20:42:00,39.0,-99.9,30.23,East,96,9.0,12.0,-999,-99.99,,,-99.99,,2013-02-27 01:42:00,
2013-02-26 20:52:00,39.0,-99.9,30.23,East,100,11.0,13.0,-999,-99.99,,,-99.99,,2013-02-27 01:52:00,
2013-02-26 21:02:00,40.0,-99.9,30.23,East,100,9.0,15.0,-999,-99.99,,,-99.99,,2013-02-27 02:02:00,
2013-02-26 21:16:00,40.0,-99.9,30.23,East,101,9.0,14.0,-999,-99.99,,,-99.99,,2013-02-27 02:16:00,
2013-02-26 21:24:00,40.0,-99.9,30.22,East,97,9.0,12.0,-999,-99.99,,,-99.99,,2013-02-27 02:24:00,
2013-02-26 21:32:00,40.0,-99.9,30.21,East,92,12.0,15.0,-999,-99.99,,,-99.99,,2013-02-27 02:32:00,
2013-02-26 21:42:00,40.0,-99.9,30.21,East,98,12.0,15.0,-999,-99.99,,,-99.99,,2013-02-27 02:42:00,
2013-02-26 21:52:00,40.0,-99.9,30.21,East,98,12.0,18.0,-999,-99.99,,,-99.99,,2013-02-27 02:52:00,
2013-02-26 22:02:00,40.0,-99.9,30.20,East,93,13.0,16.0,-999,-99.99,,,-99.99,,2013-02-27 03:02:00,
2013-02-26 22:11:00,40.0,-99.9,30.19,East,90,13.0,17.0,-999,-99.99,,,-99.99,,2013-02-27 03:11:00,
2013-02-26 22:22:00,40.0,-99.9,30.19,East,91,11.0,18.0,-999,-99.99,,,-99.99,,2013-02-27 03:22:00,
2013-02-26 22:32:00,40.0,-99.9,30.19,East,90,13.0,16.0,-999,-99.99,,,-99.99,,2013-02-27 03:32:00,
2013-02-26 22:42:00,40.0,-99.9,30.18,East,92,13.0,17.0,-999,-99.99,,,-99.99,,2013-02-27 03:42:00,
2013-02-26 22:52:00,40.0,-99.9,30.17,East,96,12.0,18.0,-999,-99.99,,,-99.99,,2013-02-27 03:52:00,
2013-02-26 23:02:00,40.0,-99.9,30.16,East,89,13.0,16.0,-999,-99.99,,,-99.99,,2013-02-27 04:02:00,
2013-02-26 23:12:00,40.0,-99.9,30.16,East,88,15.0,19.0,-999,-99.99,,,-99.99,,2013-02-27 04:12:00,
2013-02-26 23:22:00,40.0,-99.9,30.15,East,90,14.0,17.0,-999,-99.99,,,-99.99,,2013-02-27 04:22:00,
2013-02-26 23:32:00,40.0,-99.9,30.14,East,90,13.0,17.0,-999,-99.99,,,-99.99,,2013-02-27 04:32:00,
2013-02-26 23:42:00,40.0,-99.9,30.14,East,91,14.0,19.0,-999,-99.99,,,-99.99,,2013-02-27 04:42:00,
2013-02-26 23:52:00,40.0,-99.9,30.13,East,86,15.0,20.0,-999,-99.99,,,-99.99,,2013-02-27 04:52:00,